PEGASUS DEB, 24985

Orbit data source: Space-Track

PEGASUS DEB, 24985 is space debris in LEO originally from a launch on Thu, 19 May 1994 UTC launched from the Air Force Western Test Range (AFWTR). Debris objects in space refer to the collection of defunct objects orbiting the Earth. Examples of debris include non-operational satellites, rocket bodies, and fragments generated from explosions, collisions, or faulty payload assembly.

Loading next visibility...
Identifier
24985, 1994-029ACT
Orbit
LEO
Country
Flag of USUS
Related business
Manufacturer
Unknown
Mission
Spacecraft
Bus & Motor
Unknown
Mass
Unknown
Launch date (UTC)
1994-05-19 (32 years ago)
Launch vehicle
Unknown
Launch site
Air Force Western Test Range (AFWTR)
Object type
Payload
Rocket body
Debris
Shape & HBR
Unknown shape, 0.1 m
Radar Cross Section
Medium (>0.1 m² and <1 m²)

Expand to show TLE details & history
Last TLE update: 15 hours ago

TLE from 15 hours ago
0 PEGASUS DEB
1 24985U 94029ACT 26253.29660935  .00001477  00000-0  43791-3 0  9996
2 24985  81.5081  90.2295 0600760  58.9212 306.9476 13.71068849610847
Epoch: 2026-09-10T07:07Z
TLE epoch observation values (Epoch: 2026-09-10T07:07:07.047Z)
Latitude
-0.0001°
Longitude
-5.88623°
Altitude
750.202 km
Speed
7.604 km/s
True Right ascension
06h 00m 55s
True Declination
0° 00' 00"
Sunlit
Object was in daylight at epoch
Visualization orbit readout
Latitude
Unknown
Longitude
Unknown
Altitude
Unknown
Speed
Unknown
Apparent Right ascension
Unknown
Apparent Declination
Unknown
Sunlit
N/A
Visualization observer readout
Local Sidereal Time
14:01:49
Azimuth
Unknown
Elevation
Unknown
Doppler factor
Unknown
Orbital elements
Apogee altitude
1,435.76 km
Perigee altitude
550.111 km
Semi-major axis
7,371.072 km
Eccentricity
0.06008
Inclination
81.5081°
RAAN
90.2295°
Arg. of periapsis
58.9212°
True anomaly
301.19601°
Mean anomaly
306.9476°
Eccentric anomaly
304.09724°
Mean motion
3.42963 °/min
Orbital period
104.97 mins
BSTAR
0.00043791
Loading maneuver chart data...
Computing Atmospheric mass density...

Documentation

Showing up to 5 results
|